timestamp,wind_dir_avg,wind_spd_avg,wind_spd_max_dir,wind_spd_gust,battery_voltage,lat,long
2023-12-06 00:04:00+00:00,318.0,4.75,323.0,5.49,12.41,47.59359,-54.27349
2023-12-06 00:14:00+00:00,320.0,4.43,325.0,4.9,12.41,47.59359,-54.27349
2023-12-06 00:24:00+00:00,330.0,3.69,326.0,4.37,12.41,47.59359,-54.27349
2023-12-06 00:34:00+00:00,333.0,4.74,331.0,5.48,12.41,47.59359,-54.27349
2023-12-06 00:44:00+00:00,316.0,4.2,318.0,5.62,12.41,47.59359,-54.27349
2023-12-06 00:54:00+00:00,320.0,4.08,319.0,4.52,12.41,47.59359,-54.27349
2023-12-06 01:04:00+00:00,307.0,4.49,314.0,4.99,12.41,47.59359,-54.27349
2023-12-06 01:14:00+00:00,325.0,4.91,328.0,5.42,12.41,47.59359,-54.27349
2023-12-06 01:24:00+00:00,315.0,4.91,322.0,5.6,12.41,47.59359,-54.27349
2023-12-06 01:34:00+00:00,305.0,4.51,312.0,5.74,12.41,47.59359,-54.27349
2023-12-06 01:44:00+00:00,303.0,5.18,300.0,5.67,12.41,47.59359,-54.27349
2023-12-06 01:54:00+00:00,301.0,5.41,305.0,5.99,12.41,47.59359,-54.27349
2023-12-06 02:04:00+00:00,304.0,5.26,298.0,6.68,12.41,47.59359,-54.27349
2023-12-06 02:14:00+00:00,299.0,5.34,294.0,5.75,12.33,47.59359,-54.27349
2023-12-06 02:24:00+00:00,297.0,5.21,297.0,5.91,12.33,47.59359,-54.27349
2023-12-06 02:34:00+00:00,303.0,4.77,305.0,5.39,12.33,47.59359,-54.27349
2023-12-06 02:44:00+00:00,306.0,4.77,309.0,5.41,12.33,47.59359,-54.27349
2023-12-06 02:54:00+00:00,308.0,5.02,309.0,5.53,12.33,47.59359,-54.27349
2023-12-06 03:04:00+00:00,308.0,5.12,309.0,5.64,12.33,47.59359,-54.27349
2023-12-06 03:14:01+00:00,302.0,4.82,306.0,5.44,12.33,47.59359,-54.27349
2023-12-06 03:24:01+00:00,293.0,4.83,291.0,5.26,12.33,47.59359,-54.27349
2023-12-06 03:34:01+00:00,300.0,4.19,304.0,4.67,12.33,47.59359,-54.27349
2023-12-06 03:44:01+00:00,301.0,4.45,302.0,5.1,12.33,47.59359,-54.27349
2023-12-06 03:54:01+00:00,300.0,4.03,296.0,4.42,12.33,47.59359,-54.27349
2023-12-06 04:04:01+00:00,281.0,2.79,286.0,3.05,12.33,47.59359,-54.27349
2023-12-06 04:14:00+00:00,282.0,2.71,285.0,3.14,12.33,47.59359,-54.27349
2023-12-06 04:24:00+00:00,262.0,2.53,269.0,3.03,12.33,47.59359,-54.27349
2023-12-06 04:34:00+00:00,272.0,1.57,281.0,2.41,12.33,47.59359,-54.27349
2023-12-06 04:44:00+00:00,256.0,3.38,253.0,3.63,12.33,47.59359,-54.27349
2023-12-06 04:54:00+00:00,277.0,3.05,271.0,3.42,12.33,47.59359,-54.27349
2023-12-06 05:04:00+00:00,269.0,2.68,270.0,3.13,12.33,47.59359,-54.27349
2023-12-06 05:14:01+00:00,250.0,3.39,253.0,3.77,12.33,47.59359,-54.27349
2023-12-06 05:24:01+00:00,252.0,4.2,239.0,4.6,12.33,47.59359,-54.27349
2023-12-06 05:34:01+00:00,238.0,4.03,231.0,4.59,12.33,47.59359,-54.27349
2023-12-06 05:44:01+00:00,228.0,3.79,229.0,4.18,12.33,47.59359,-54.27349
2023-12-06 05:54:01+00:00,217.0,3.79,215.0,4.28,12.33,47.59359,-54.27349
2023-12-06 06:04:01+00:00,226.0,4.37,228.0,5.06,12.33,47.59359,-54.27349
2023-12-06 06:14:00+00:00,235.0,4.5,245.0,5.32,12.25,47.59359,-54.27349
2023-12-06 06:24:00+00:00,244.0,5.55,252.0,9.57,12.25,47.59359,-54.27349
2023-12-06 06:34:00+00:00,245.0,5.8,256.0,9.75,12.25,47.59359,-54.27349
2023-12-06 06:44:00+00:00,258.0,3.83,261.0,4.9,12.25,47.59359,-54.27349
2023-12-06 06:54:00+00:00,283.0,4.54,289.0,5.1,12.25,47.59359,-54.27349
2023-12-06 07:04:00+00:00,266.0,4.76,269.0,5.69,12.25,47.59359,-54.27349
2023-12-06 07:14:00+00:00,262.0,3.69,271.0,4.4,12.25,47.59359,-54.27349
2023-12-06 07:24:00+00:00,228.0,3.75,227.0,4.16,12.25,47.59359,-54.27349
2023-12-06 07:34:00+00:00,210.0,3.27,209.0,3.72,12.25,47.59359,-54.27349
2023-12-06 07:44:00+00:00,201.0,3.8,201.0,4.61,12.25,47.59359,-54.27349
2023-12-06 07:54:00+00:00,210.0,4.47,215.0,5.04,12.25,47.59359,-54.27349
2023-12-06 08:04:00+00:00,224.0,4.41,217.0,5.59,12.25,47.59359,-54.27349
2023-12-06 08:14:00+00:00,239.0,7.12,240.0,10.01,12.25,47.59359,-54.27349
2023-12-06 08:24:00+00:00,240.0,5.32,250.0,7.9,12.25,47.59359,-54.27349
2023-12-06 08:34:00+00:00,241.0,4.95,256.0,7.36,12.25,47.59359,-54.27349
2023-12-06 08:44:00+00:00,260.0,9.51,262.0,10.33,12.25,47.59359,-54.27349
2023-12-06 08:54:00+00:00,256.0,8.09,263.0,10.6,12.25,47.59359,-54.27349
2023-12-06 09:04:00+00:00,261.0,9.37,259.0,11.01,12.25,47.59359,-54.27349
2023-12-06 09:14:01+00:00,289.0,10.83,288.0,13.18,12.25,47.59359,-54.27349
2023-12-06 09:24:01+00:00,299.0,7.76,300.0,9.43,12.25,47.59359,-54.27349
2023-12-06 09:34:01+00:00,278.0,8.05,288.0,9.54,12.25,47.59359,-54.27349
2023-12-06 09:44:01+00:00,278.0,6.19,272.0,7.87,12.25,47.59359,-54.27349
2023-12-06 09:54:01+00:00,279.0,5.44,280.0,6.27,12.25,47.59359,-54.27349
2023-12-06 10:04:01+00:00,295.0,4.59,301.0,5.3,12.25,47.59359,-54.27349
2023-12-06 10:14:01+00:00,307.0,4.59,315.0,5.47,12.25,47.59359,-54.27349
2023-12-06 10:24:01+00:00,318.0,5.22,322.0,6.41,12.25,47.59359,-54.27349
2023-12-06 10:34:01+00:00,301.0,7.06,295.0,8.32,12.25,47.59359,-54.27349
2023-12-06 10:44:01+00:00,314.0,5.25,308.0,6.34,12.25,47.59359,-54.27349
2023-12-06 10:54:01+00:00,322.0,6.15,324.0,7.35,12.25,47.59359,-54.27349
2023-12-06 11:04:01+00:00,311.0,5.61,296.0,6.69,12.25,47.59359,-54.27349
2023-12-06 11:14:00+00:00,316.0,5.75,320.0,6.85,12.25,47.59359,-54.27349
2023-12-06 11:24:00+00:00,310.0,6.37,314.0,7.5,12.25,47.59359,-54.27349
2023-12-06 11:34:00+00:00,314.0,5.93,316.0,7.32,12.25,47.59359,-54.27349
2023-12-06 11:44:00+00:00,322.0,5.38,322.0,7.12,12.25,47.59359,-54.27349
2023-12-06 11:54:00+00:00,313.0,5.81,314.0,6.85,12.25,47.59359,-54.27349
2023-12-06 12:04:00+00:00,302.0,3.74,310.0,5.02,12.25,47.59359,-54.27349
2023-12-06 12:14:00+00:00,294.0,5.12,288.0,6.63,12.33,47.59359,-54.27349
2023-12-06 12:24:00+00:00,306.0,5.97,310.0,8.72,12.33,47.59359,-54.27349
2023-12-06 12:34:00+00:00,308.0,7.18,304.0,8.78,12.33,47.59359,-54.27349
2023-12-06 12:44:00+00:00,304.0,8.49,298.0,9.65,12.33,47.59359,-54.27349
2023-12-06 12:54:00+00:00,307.0,7.51,306.0,8.7,12.33,47.59359,-54.27349
2023-12-06 13:04:00+00:00,296.0,8.79,293.0,11.29,12.33,47.59359,-54.27349
2023-12-06 13:14:00+00:00,298.0,8.83,290.0,13.91,14.08,47.59359,-54.27349
2023-12-06 13:24:00+00:00,323.0,8.0,327.0,9.07,14.08,47.59359,-54.27349
2023-12-06 13:34:00+00:00,301.0,6.92,301.0,8.25,14.08,47.59359,-54.27349
2023-12-06 13:44:00+00:00,292.0,7.39,291.0,8.74,14.08,47.59359,-54.27349
2023-12-06 13:54:00+00:00,299.0,7.43,297.0,8.66,14.08,47.59359,-54.27349
2023-12-06 14:04:00+00:00,289.0,9.37,284.0,14.36,14.08,47.59359,-54.27349
2023-12-06 14:14:00+00:00,295.0,8.0,301.0,9.21,13.68,47.59359,-54.27349
2023-12-06 14:24:00+00:00,299.0,9.35,286.0,13.13,13.68,47.59359,-54.27349
2023-12-06 14:34:00+00:00,293.0,13.36,297.0,15.38,13.68,47.59359,-54.27349
2023-12-06 14:44:00+00:00,303.0,8.21,285.0,11.89,13.68,47.59359,-54.27349
2023-12-06 14:54:00+00:00,300.0,6.51,295.0,8.26,13.68,47.59359,-54.27349
2023-12-06 15:04:00+00:00,298.0,8.1,302.0,9.31,13.68,47.59359,-54.27349
2023-12-06 15:14:00+00:00,299.0,7.63,299.0,8.83,13.68,47.59359,-54.27349
2023-12-06 15:24:00+00:00,302.0,9.13,296.0,11.92,13.68,47.59359,-54.27349
2023-12-06 15:34:00+00:00,301.0,8.22,303.0,9.12,13.68,47.59359,-54.27349
2023-12-06 15:44:00+00:00,306.0,8.09,307.0,8.97,13.68,47.59359,-54.27349
2023-12-06 15:54:00+00:00,304.0,6.65,299.0,7.74,13.68,47.59359,-54.27349
2023-12-06 16:04:00+00:00,296.0,6.45,299.0,7.75,13.68,47.59359,-54.27349
2023-12-06 16:14:00+00:00,303.0,6.47,301.0,7.83,14.48,47.59359,-54.27349
2023-12-06 16:24:00+00:00,283.0,6.39,279.0,7.78,14.48,47.59359,-54.27349
2023-12-06 16:34:00+00:00,281.0,7.14,279.0,8.46,14.48,47.59359,-54.27349
2023-12-06 16:44:00+00:00,282.0,5.52,287.0,6.07,14.48,47.59359,-54.27349
2023-12-06 16:54:00+00:00,280.0,4.61,287.0,5.62,14.48,47.59359,-54.27349
2023-12-06 17:04:00+00:00,267.0,4.43,272.0,5.86,14.48,47.59359,-54.27349
2023-12-06 17:14:00+00:00,276.0,6.47,272.0,7.35,14.08,47.59359,-54.27349
2023-12-06 17:24:00+00:00,259.0,4.87,264.0,6.39,14.08,47.59359,-54.27349
2023-12-06 17:34:00+00:00,269.0,4.45,272.0,5.3,14.08,47.59359,-54.27349
2023-12-06 17:44:00+00:00,260.0,4.98,261.0,6.12,14.08,47.59359,-54.27349
2023-12-06 17:54:00+00:00,259.0,5.55,266.0,7.24,14.08,47.59359,-54.27349
2023-12-06 18:04:00+00:00,265.0,4.43,262.0,6.78,14.08,47.59359,-54.27349
2023-12-06 18:14:00+00:00,260.0,4.64,257.0,5.67,13.68,47.59359,-54.27349
2023-12-06 18:24:00+00:00,270.0,4.11,272.0,5.2,13.68,47.59359,-54.27349
2023-12-06 18:34:00+00:00,264.0,4.86,262.0,5.78,13.68,47.59359,-54.27349
2023-12-06 18:44:00+00:00,275.0,4.72,272.0,5.32,13.68,47.59359,-54.27349
2023-12-06 18:54:00+00:00,262.0,3.72,282.0,4.55,13.68,47.59359,-54.27349
2023-12-06 19:04:00+00:00,270.0,3.99,264.0,5.23,13.68,47.59359,-54.27349
2023-12-06 19:14:00+00:00,237.0,4.79,257.0,5.61,13.05,47.59359,-54.27349
2023-12-06 19:24:00+00:00,251.0,4.17,246.0,4.66,13.05,47.59359,-54.27349
2023-12-06 19:34:00+00:00,221.0,4.78,218.0,5.39,13.05,47.59359,-54.27349
2023-12-06 19:44:00+00:00,244.0,5.83,249.0,7.34,13.05,47.59359,-54.27349
2023-12-06 19:54:00+00:00,236.0,6.23,238.0,7.72,13.05,47.59359,-54.27349
2023-12-06 20:04:00+00:00,240.0,4.75,234.0,5.51,13.05,47.59359,-54.27349
2023-12-06 20:14:00+00:00,250.0,6.27,251.0,7.19,12.57,47.59359,-54.27349
2023-12-06 20:24:00+00:00,260.0,5.53,269.0,6.62,12.57,47.59359,-54.27349
2023-12-06 20:34:00+00:00,270.0,5.95,269.0,6.56,12.57,47.59359,-54.27349
2023-12-06 20:44:00+00:00,253.0,4.95,253.0,6.06,12.57,47.59359,-54.27349
2023-12-06 20:54:00+00:00,255.0,5.98,255.0,6.99,12.57,47.59359,-54.27349
2023-12-06 21:04:00+00:00,240.0,6.27,237.0,7.25,12.57,47.59359,-54.27349
2023-12-06 21:14:00+00:00,253.0,5.95,252.0,6.71,12.41,47.59359,-54.27349
2023-12-06 21:24:00+00:00,242.0,6.67,245.0,8.08,12.41,47.59359,-54.27349
2023-12-06 21:34:00+00:00,240.0,8.33,240.0,10.13,12.41,47.59359,-54.27349
2023-12-06 21:44:00+00:00,250.0,7.74,248.0,10.01,12.41,47.59359,-54.27349
2023-12-06 21:54:00+00:00,266.0,7.22,271.0,8.51,12.41,47.59359,-54.27349
2023-12-06 22:04:00+00:00,274.0,6.04,271.0,6.92,12.41,47.59359,-54.27349
2023-12-06 22:14:00+00:00,304.0,5.71,311.0,6.94,12.41,47.59359,-54.27349
2023-12-06 22:24:00+00:00,326.0,4.2,324.0,5.14,12.41,47.59359,-54.27349
2023-12-06 22:34:00+00:00,304.0,3.51,310.0,4.07,12.41,47.59359,-54.27349
2023-12-06 22:44:00+00:00,283.0,3.47,285.0,3.95,12.41,47.59359,-54.27349
2023-12-06 22:54:00+00:00,291.0,2.95,291.0,3.45,12.41,47.59359,-54.27349
2023-12-06 23:04:00+00:00,332.0,3.07,326.0,4.03,12.41,47.59359,-54.27349
2023-12-06 23:14:00+00:00,303.0,2.78,306.0,3.17,12.41,47.59359,-54.27349
2023-12-06 23:24:00+00:00,321.0,2.72,325.0,3.12,12.41,47.59359,-54.27349
2023-12-06 23:34:00+00:00,301.0,1.74,284.0,2.5,12.41,47.59359,-54.27349
2023-12-06 23:44:00+00:00,259.0,2.8,253.0,3.36,12.41,47.59359,-54.27349
2023-12-06 23:54:00+00:00,243.0,1.08,250.0,1.84,12.41,47.59359,-54.27349
